DW8622 Weather Reports


time (UTC)temp
C
wind
direction
speed
KPH
gust
KPH
rain 1hr
cm
rain 24hr
cm
rain mn
cm
humidity
%
barometer
mb
20260506203505 12 0 0.0 0.0 0.00 0.00 0.00 75 1011.9
20260506203005 12 0 0.0 0.0 0.00 0.00 0.00 75 1011.9
20260506202505 12 332 0.0 9.7 0.00 0.00 0.00 75 1011.8
20260506202005 12 330 1.6 9.7 0.00 0.00 0.00 75 1011.8
20260506201505 11 328 3.2 11.3 0.00 0.00 0.00 75 1011.8
20260506201005 11 327 1.6 11.3 0.00 0.00 0.00 75 1011.8
20260506200505 11 326 0.0 8.0 0.00 0.00 0.00 76 1011.7
20260506200005 11 0 0.0 0.0 0.00 0.00 0.00 75 1011.6
20260506195504 11 0 0.0 0.0 0.00 0.00 0.00 75 1011.6
20260506195005 12 0 0.0 0.0 0.00 0.00 0.00 74 1011.6
20260506194005 12 32 3.2 8.0 0.00 0.00 0.00 72 1011.5
20260506193505 12 28 4.8 8.0 0.00 0.00 0.00 71 1011.5
20260506193005 12 23 6.4 16.1 0.00 0.00 0.00 70 1011.5
20260506192505 12 20 6.4 16.1 0.00 0.00 0.00 69 1011.4
20260506191507 12 23 6.4 16.1 0.00 0.00 0.00 71 1011.2
20260506191005 12 23 1.6 14.5 0.00 0.00 0.00 72 1011.2
20260506190505 12 33 0.0 6.4 0.00 0.00 0.00 73 1011.1
20260506190006 12 0 0.0 0.0 0.00 0.00 0.00 74 1011.1
20260506184505 12 0 0.0 0.0 0.00 0.00 0.00 74 1010.8
20260506184006 12 0 0.0 0.0 0.00 0.00 0.00 72 1010.7
20260506183006 12 0 0.0 0.0 0.00 0.00 0.00 72 1010.7
20260506182505 12 0 0.0 0.0 0.00 0.00 0.00 69 1010.7
20260506182005 12 0 0.0 0.0 0.00 0.00 0.00 70 1010.5
20260506181506 12 0 0.0 0.0 0.00 0.00 0.00 69 1010.5
20260506181005 12 0 0.0 0.0 0.00 0.00 0.00 70 1010.5
20260506180507 12 0 0.0 0.0 0.00 0.00 0.00 70 1010.4
20260506180006 12 284 0.0 1.6 0.00 0.00 0.00 70 1010.3
20260506175506 12 284 0.0 1.6 0.00 0.00 0.00 70 1010.3
20260506175006 12 0 0.0 0.0 0.00 0.00 0.00 71 1010.3
20260506174521 12 0 0.0 0.0 0.00 0.00 0.00 70 1010.2
20260506174005 12 0 0.0 0.0 0.00 0.00 0.00 68 1010.1
20260506173507 12 0 0.0 0.0 0.00 0.00 0.00 69 1010.0
20260506172505 12 0 0.0 0.0 0.00 0.00 0.00 70 1009.9
20260506172006 13 0 0.0 0.0 0.00 0.00 0.00 70 1009.9
20260506171505 13 0 0.0 0.0 0.00 0.00 0.00 70 1009.9
20260506170505 13 49 3.2 9.7 0.00 0.00 0.00 69 1009.8
20260506170006 13 41 4.8 9.7 0.00 0.00 0.00 67 1009.8
20260506165506 13 35 4.8 8.0 0.00 0.00 0.00 66 1009.8
20260506164505 13 40 4.8 9.7 0.00 0.00 0.00 66 1009.8
20260506164005 13 44 4.8 11.3 0.00 0.00 0.00 67 1009.8
20260506163506 13 41 6.4 14.5 0.00 0.00 0.00 66 1009.8
20260506163005 13 37 8.0 14.5 0.00 0.00 0.00 65 1009.8
20260506162505 13 35 8.0 12.9 0.00 0.00 0.00 66 1009.8
20260506161506 13 29 9.7 16.1 0.00 0.00 0.00 63 1009.7
20260506161006 13 26 9.7 14.5 0.00 0.00 0.00 63 1009.7
20260506160505 13 25 9.7 16.1 0.00 0.00 0.00 63 1009.7
20260506160005 13 25 11.3 16.1 0.00 0.00 0.00 62 1009.8
20260506155506 13 25 9.7 16.1 0.00 0.00 0.00 63 1009.8
20260506155006 13 23 8.0 16.1 0.00 0.00 0.00 62 1009.8
20260506154506 13 19 6.4 14.5 0.00 0.00 0.00 62 1009.8
20260506154005 13 21 4.8 11.3 0.00 0.00 0.00 62 1009.8
20260506153005 13 36 8.0 14.5 0.00 0.00 0.00 65 1009.7
20260506152505 13 42 9.7 17.7 0.00 0.00 0.00 66 1009.8
20260506152005 13 39 9.7 17.7 0.00 0.00 0.00 65 1009.7
20260506151006 13 25 9.7 17.7 0.00 0.00 0.00 64 1009.7
20260506150506 13 26 9.7 17.7 0.00 0.00 0.00 62 1009.7
20260506145006 13 24 8.0 17.7 0.00 0.00 0.00 62 1009.6
20260506144006 14 26 11.3 16.1 0.00 0.00 0.00 64 1009.6
20260506143506 14 24 12.9 20.9 0.00 0.00 0.00 62 1009.6
20260506143005 14 25 14.5 20.9 0.00 0.00 0.00 61 1009.6
20260506142505 14 28 14.5 22.5 0.00 0.00 0.00 62 1009.6
20260506142005 14 28 16.1 24.1 0.00 0.00 0.00 60 1009.5
20260506141005 15 26 12.9 20.9 0.00 0.00 0.00 60 1009.5
20260506140505 15 28 14.5 20.9 0.00 0.00 0.00 59 1009.5
20260506140005 15 30 14.5 20.9 0.00 0.00 0.00 59 1009.5
20260506135505 15 26 14.5 22.5 0.00 0.00 0.00 59 1009.5
20260506135006 15 22 11.3 22.5 0.00 0.00 0.00 56 1009.4
20260506134006 15 16 9.7 20.9 0.00 0.00 0.00 54 1009.5
20260506133505 15 23 11.3 22.5 0.00 0.00 0.00 57 1009.5
20260506133005 15 22 14.5 22.5 0.00 0.00 0.00 56 1009.4
20260506132505 15 21 14.5 22.5 0.00 0.00 0.00 55 1009.3
20260506132005 16 16 11.3 22.5 0.00 0.00 0.00 56 1009.2
20260506131505 16 16 11.3 22.5 0.00 0.00 0.00 58 1009.2
20260506131005 16 18 11.3 22.5 0.00 0.00 0.00 56 1009.2
20260506130006 15 22 11.3 20.9 0.00 0.00 0.00 63 1009.1
20260506125507 15 22 11.3 20.9 0.00 0.00 0.00 63 1009.2
20260506125005 14 21 9.7 20.9 0.00 0.00 0.00 65 1009.2
20260506124505 14 17 8.0 20.9 0.00 0.00 0.00 65 1009.1
20260506124005 14 8 4.8 12.9 0.00 0.00 0.00 65 1009.0
20260506123506 14 12 6.4 16.1 0.00 0.00 0.00 65 1009.0
20260506123005 14 17 8.0 16.1 0.00 0.00 0.00 66 1009.0
20260506122005 14 9 8.0 19.3 0.00 0.00 0.00 66 1009.0
20260506121005 14 5 6.4 16.1 0.00 0.00 0.00 68 1009.0
20260506120005 13 3 6.4 14.5 0.00 0.00 0.00 68 1009.0
20260506115505 13 357 6.4 16.1 0.00 0.00 0.00 67 1009.0
20260506115005 13 6 6.4 16.1 0.00 0.00 0.00 68 1009.0
20260506114505 13 355 6.4 19.3 0.00 0.00 0.00 69 1009.0
20260506114005 13 345 8.0 19.3 0.00 0.00 0.00 69 1009.0
20260506113006 13 359 6.4 17.7 0.00 0.00 0.00 70 1009.1
20260506112505 13 2 8.0 17.7 0.00 0.00 0.00 71 1009.1
20260506112005 14 4 8.0 17.7 0.00 0.00 0.00 70 1009.0
20260506111505 14 2 9.7 19.3 0.00 0.00 0.00 70 1009.0
20260506111003 14 6 9.7 19.3 0.00 0.00 0.00 70 1008.9
20260506110505 14 9 9.7 19.3 0.00 0.00 0.00 71 1008.9
20260506110005 14 8 8.0 17.7 0.00 0.00 0.00 71 1008.9
20260506105005 15 10 9.7 19.3 0.00 0.00 0.00 70 1008.9
20260506104505 15 14 9.7 19.3 0.00 0.00 0.00 69 1008.9
20260506104005 14 7 8.0 19.3 0.00 0.00 0.00 69 1008.9
20260506103005 14 342 8.0 19.3 0.00 0.00 0.00 67 1008.8
20260506101505 15 355 6.4 20.9 0.00 0.00 0.00 64 1008.8
20260506101005 16 342 8.0 20.9 0.00 0.00 0.00 61 1008.7
20260506100505 16 345 9.7 19.3 0.00 0.00 0.00 58 1008.6
20260506100006 17 7 11.3 19.3 0.00 0.00 0.00 60 1008.6
20260506095507 16 16 12.9 20.9 0.00 0.00 0.00 63 1008.6
20260506095005 16 12 12.9 22.5 0.00 0.00 0.00 63 1008.6
20260506094506 16 14 11.3 22.5 0.00 0.00 0.00 61 1008.6
20260506094005 16 13 11.3 19.3 0.00 0.00 0.00 62 1008.5
20260506093506 16 14 11.3 20.9 0.00 0.00 0.00 65 1008.4
20260506093005 16 16 12.9 22.5 0.00 0.00 0.00 63 1008.6
20260506092505 15 15 12.9 22.5 0.00 0.00 0.00 64 1008.6
20260506092005 15 15 11.3 22.5 0.00 0.00 0.00 64 1008.5
20260506091505 15 11 9.7 22.5 0.00 0.00 0.00 64 1008.5
20260506091006 15 5 8.0 17.7 0.00 0.00 0.00 67 1008.5
20260506090006 14 14 9.7 20.9 0.00 0.00 0.00 70 1008.4
20260506085505 14 10 8.0 16.1 0.00 0.00 0.00 71 1008.4
20260506085005 14 347 6.4 14.5 0.00 0.00 0.00 76 1008.3
20260506084505 14 334 8.0 20.9 0.00 0.00 0.00 76 1008.3
20260506084006 14 347 8.0 20.9 0.00 0.00 0.00 75 1008.3
20260506083506 14 351 8.0 17.7 0.00 0.00 0.00 75 1008.3
20260506082505 14 333 6.4 19.3 0.00 0.00 0.00 75 1008.2
20260506082005 14 329 8.0 17.7 0.00 0.00 0.00 77 1008.2
20260506081520 13 331 9.7 19.3 0.00 0.00 0.00 77 1008.2
20260506080506 13 336 8.0 22.5 0.00 0.00 0.00 80 1008.2
20260506073506 12 328 8.0 17.7 0.00 0.00 0.00 84 1008.2
20260506072506 12 328 8.0 20.9 0.00 0.00 0.00 84 1008.3
20260506072006 12 333 8.0 19.3 0.00 0.00 0.00 85 1008.2
20260506071506 11 329 8.0 19.3 0.00 0.00 0.00 84 1008.1
20260506071006 11 331 8.0 17.7 0.00 0.00 0.00 84 1008.1
20260506062506 11 333 8.0 16.1 0.00 0.00 0.00 86 1008.0
20260506062007 11 333 8.0 19.3 0.00 0.00 0.00 86 1008.0
20260506061505 11 333 8.0 19.3 0.00 0.00 0.00 86 1007.9
20260506061006 11 333 8.0 16.1 0.00 0.00 0.00 87 1007.9
20260506060506 10 333 6.4 16.1 0.00 0.00 0.00 87 1008.0
20260506051006 10 324 8.0 17.7 0.00 0.00 0.00 92 1007.9
20260506050505 10 335 6.4 14.5 0.00 0.00 0.00 92 1007.9
20260506044505 10 324 6.4 17.7 0.00 0.00 0.00 92 1007.9
20260506044005 10 323 8.0 19.3 0.00 0.00 0.00 92 1008.0
20260506043505 10 324 9.7 19.3 0.00 0.00 0.00 92 1008.0
20260506043007 10 326 6.4 16.1 0.00 0.00 0.00 92 1008.0
20260506042505 10 328 3.2 14.5 0.00 0.00 0.00 92 1008.1
20260506041505 10 0 0.0 0.0 0.00 0.00 0.00 92 1008.0
20260506041006 10 0 0.0 0.0 0.00 0.00 0.00 92 1008.1
20260506040506 10 0 0.0 0.0 0.00 0.00 0.00 92 1008.0
20260506034507 10 356 3.2 14.5 0.00 0.00 0.00 91 1008.1
20260506033005 10 12 4.8 11.3 0.00 0.00 0.00 90 1008.2
20260506032005 10 7 4.8 14.5 0.00 0.00 0.00 90 1008.2
20260506031506 10 2 3.2 12.9 0.00 0.00 0.00 90 1008.2
20260506031006 10 351 6.4 16.1 0.00 0.00 0.00 89 1008.3
20260506030005 10 353 3.2 14.5 0.00 0.00 0.00 88 1008.4
20260506025505 10 346 3.2 16.1 0.00 0.00 0.00 88 1008.4
20260506025007 10 349 3.2 16.1 0.00 0.00 0.00 87 1008.4
20260506024505 10 352 4.8 11.3 0.00 0.00 0.00 86 1008.4
20260506024005 10 345 4.8 12.9 0.00 0.00 0.00 86 1008.4
20260506023505 10 341 4.8 14.5 0.00 0.00 0.00 85 1008.5
20260506023006 10 336 6.4 14.5 0.00 0.00 0.00 85 1008.4
20260506022505 10 330 6.4 20.9 0.00 0.00 0.00 85 1008.4
20260506022006 10 329 6.4 20.9 0.00 0.00 0.00 86 1008.4
20260506021505 10 331 6.4 12.9 0.00 0.00 0.00 86 1008.4
20260506021002 10 331 6.4 14.5 0.00 0.00 0.00 86 1008.4
20260506020506 10 333 6.4 14.5 0.00 0.00 0.00 86 1008.4
20260506020005 10 331 8.0 19.3 0.00 0.00 0.00 86 1008.4
20260506015006 10 330 6.4 19.3 0.00 0.00 0.00 87 1008.4
20260506014505 10 327 6.4 19.3 0.00 0.00 0.00 87 1008.5
20260506013505 10 328 4.8 14.5 0.00 0.00 0.00 87 1008.4
20260506013006 10 331 4.8 12.9 0.00 0.00 0.00 87 1008.5
20260506012507 10 333 3.2 14.5 0.00 0.00 0.00 87 1008.4
20260506012005 10 331 3.2 14.5 0.00 0.00 0.00 87 1008.5
20260506011505 10 329 4.8 14.5 0.00 0.00 0.00 87 1008.6
20260506011006 10 331 4.8 14.5 0.00 0.00 0.00 87 1008.6
20260506010505 10 332 3.2 12.9 0.00 0.00 0.00 86 1008.7
20260506005506 10 329 4.8 12.9 0.00 0.00 0.00 86 1008.7
20260506005005 10 327 4.8 14.5 0.00 0.00 0.00 86 1008.8
20260506004505 10 324 3.2 14.5 0.00 0.00 0.00 86 1008.9
20260506004006 10 324 1.6 11.3 0.00 0.00 0.00 86 1008.9
20260506003505 10 332 1.6 14.5 0.00 0.00 0.00 86 1008.9
20260506002507 10 0 0.0 0.0 0.00 0.00 0.00 86 1009.0
20260506001505 10 330 0.0 6.4 0.00 0.00 0.00 86 1009.0
20260506001005 10 324 3.2 12.9 0.00 0.00 0.00 86 1009.0
20260506000505 10 324 3.2 12.9 0.00 0.00 0.00 85 1009.0
20260506000005 9 328 3.2 12.9 0.00 0.00 0.00 85 1009.1
20260505235007 9 316 0.0 9.7 0.00 0.00 0.00 84 1009.2
20260505234005 10 338 1.6 8.0 0.00 0.00 0.00 83 1009.2
20260505233505 10 333 1.6 8.0 0.00 0.00 0.00 83 1009.3
20260505233005 10 329 3.2 8.0 0.00 0.00 0.00 83 1009.3
20260505232506 10 329 4.8 12.9 0.00 0.00 0.00 82 1009.4
20260505232005 10 331 4.8 12.9 0.00 0.00 0.00 82 1009.4
20260505231506 10 335 3.2 12.9 0.00 0.00 0.00 82 1009.5
20260505231005 10 332 3.2 12.9 0.00 0.00 0.00 82 1009.5
20260505230506 10 332 3.2 9.7 0.00 0.00 0.00 82 1009.5
20260505230005 10 334 3.2 12.9 0.00 0.00 0.00 82 1009.6
20260505225507 10 337 3.2 12.9 0.00 0.00 0.00 82 1009.6
20260505225006 9 343 1.6 11.3 0.00 0.00 0.00 82 1009.6
20260505224505 9 337 3.2 9.7 0.00 0.00 0.00 82 1009.6
20260505224006 9 340 1.6 8.0 0.00 0.00 0.00 83 1009.6
20260505223505 9 335 1.6 6.4 0.00 0.00 0.00 83 1009.7
20260505223005 9 340 3.2 6.4 0.00 0.00 0.00 83 1009.7
20260505222505 9 356 3.2 8.0 0.00 0.00 0.00 82 1009.7
20260505222006 9 4 3.2 12.9 0.00 0.00 0.00 82 1009.8
20260505221505 9 356 3.2 12.9 0.00 0.00 0.00 82 1009.8
20260505221005 10 354 3.2 8.0 0.00 0.00 0.00 82 1009.8
20260505220505 10 354 3.2 8.0 0.00 0.00 0.00 82 1009.8
20260505220006 10 346 3.2 11.3 0.00 0.00 0.00 82 1009.8
20260505215506 10 344 4.8 12.9 0.00 0.00 0.00 82 1009.8
20260505214506 10 334 4.8 14.5 0.00 0.00 0.00 82 1009.8
20260505214006 10 333 4.8 14.5 0.00 0.00 0.00 83 1009.8
20260505213506 10 333 6.4 14.5 0.00 0.00 0.00 83 1009.8
20260505213006 10 330 6.4 16.1 0.00 0.00 0.00 83 1009.9
20260505212507 10 329 4.8 16.1 0.00 0.00 0.00 83 1009.9
20260505212006 10 332 1.6 11.3 0.00 0.00 0.00 83 1009.9
20260505211506 10 341 0.0 8.0 0.00 0.00 0.00 83 1010.0
20260505211005 10 359 0.0 8.0 0.00 0.00 0.00 82 1009.9
20260505210505 10 353 1.6 8.0 0.00 0.00 0.00 82 1010.0
20260505210005 10 353 4.8 12.9 0.00 0.00 0.00 81 1010.0
20260505205505 10 349 4.8 12.9 0.00 0.00 0.00 81 1010.0
20260505205005 10 348 4.8 12.9 0.00 0.00 0.00 81 1010.0
20260505204506 10 354 4.8 12.9 0.00 0.00 0.00 81 1010.0
20260505204005 10 350 4.8 14.5 0.00 0.00 0.00 80 1010.0